| time (UTC) | temp F | wind direction | speed MPH | gust MPH | rain 1hr in | rain 24hr in | rain mn in | humidity % | barometer mb |
| 20260507200505 | 62 | 186 | 0.0 | 0.0 | 0.00 | 0.01 | 0.01 | 32 | 1020.4 |
| 20260507200001 | 62 | 318 | 0.0 | 0.0 | 0.00 | 0.01 | 0.01 | 30 | 1020.4 |
| 20260507195459 | 61 | 352 | 0.0 | 0.0 | 0.00 | 0.01 | 0.01 | 31 | 1020.4 |
| 20260507194956 | 60 | 90 | 0.0 | 0.0 | 0.00 | 0.01 | 0.01 | 30 | 1020.4 |
| 20260507194453 | 62 | 334 | 0.0 | 0.0 | 0.00 | 0.01 | 0.01 | 28 | 1020.4 |
| 20260507193948 | 62 | 330 | 0.0 | 0.0 | 0.00 | 0.01 | 0.01 | 31 | 1020.4 |
| 20260507193446 | 62 | 65 | 0.0 | 0.0 | 0.00 | 0.01 | 0.01 | 29 | 1020.4 |
| 20260507192942 | 62 | 336 | 0.0 | 0.0 | 0.00 | 0.01 | 0.01 | 31 | 1020.4 |
| 20260507192438 | 61 | 231 | 0.0 | 0.0 | 0.00 | 0.01 | 0.01 | 32 | 1020.4 |
| 20260507191936 | 60 | 1 | 0.0 | 0.0 | 0.00 | 0.01 | 0.01 | 29 | 1020.4 |
| 20260507191432 | 60 | 330 | 0.0 | 0.0 | 0.00 | 0.01 | 0.01 | 31 | 1020.8 |
| 20260507190928 | 61 | 36 | 0.0 | 0.0 | 0.00 | 0.01 | 0.01 | 29 | 1020.8 |
| 20260507190426 | 62 | 84 | 0.0 | 0.0 | 0.00 | 0.01 | 0.01 | 29 | 1020.8 |
| 20260507185925 | 62 | 312 | 0.0 | 0.0 | 0.00 | 0.01 | 0.01 | 28 | 1020.8 |
| 20260507185422 | 62 | 42 | 0.0 | 0.0 | 0.00 | 0.01 | 0.01 | 27 | 1020.8 |
| 20260507184919 | 61 | 0 | 0.0 | 0.0 | 0.00 | 0.01 | 0.01 | 26 | 1020.8 |
| 20260507184416 | 62 | 6 | 0.0 | 0.0 | 0.00 | 0.01 | 0.01 | 27 | 1020.8 |
| 20260507183914 | 61 | 36 | 0.0 | 0.0 | 0.00 | 0.01 | 0.01 | 26 | 1020.8 |
| 20260507183410 | 60 | 214 | 0.0 | 0.0 | 0.00 | 0.01 | 0.01 | 27 | 1020.8 |
| 20260507182908 | 61 | 9 | 0.0 | 0.0 | 0.00 | 0.01 | 0.01 | 25 | 1020.8 |
| 20260507182403 | 60 | 314 | 0.0 | 0.0 | 0.00 | 0.01 | 0.01 | 27 | 1020.8 |
| 20260507181900 | 59 | 39 | 0.0 | 0.0 | 0.00 | 0.01 | 0.01 | 28 | 1020.8 |
| 20260507181356 | 59 | 12 | 0.0 | 0.0 | 0.00 | 0.01 | 0.01 | 29 | 1020.8 |
| 20260507180853 | 59 | 48 | 0.0 | 0.0 | 0.00 | 0.01 | 0.01 | 28 | 1020.8 |
| 20260507180350 | 59 | 39 | 0.0 | 0.0 | 0.00 | 0.01 | 0.01 | 27 | 1020.8 |
| 20260507175845 | 59 | 84 | 0.0 | 0.0 | 0.00 | 0.01 | 0.01 | 27 | 1020.8 |
| 20260507175343 | 60 | 334 | 0.0 | 0.0 | 0.00 | 0.01 | 0.01 | 27 | 1020.8 |
| 20260507174840 | 59 | 96 | 0.0 | 0.0 | 0.00 | 0.01 | 0.01 | 27 | 1020.8 |
| 20260507174337 | 60 | 328 | 0.0 | 0.0 | 0.00 | 0.01 | 0.01 | 28 | 1021.3 |
| 20260507173835 | 60 | 181 | 0.0 | 0.0 | 0.00 | 0.01 | 0.01 | 26 | 1021.3 |
| 20260507173332 | 59 | 30 | 0.0 | 0.0 | 0.00 | 0.01 | 0.01 | 26 | 1021.3 |
| 20260507172828 | 58 | 0 | 0.0 | 0.0 | 0.00 | 0.01 | 0.01 | 26 | 1021.6 |
| 20260507172325 | 58 | 20 | 0.0 | 0.0 | 0.00 | 0.01 | 0.01 | 29 | 1021.6 |
| 20260507171821 | 58 | 324 | 0.0 | 0.0 | 0.00 | 0.01 | 0.01 | 28 | 1021.6 |
| 20260507171318 | 58 | 30 | 0.0 | 0.0 | 0.00 | 0.01 | 0.01 | 28 | 1021.3 |
| 20260507170815 | 58 | 348 | 0.0 | 0.0 | 0.00 | 0.01 | 0.01 | 27 | 1021.3 |
| 20260507170311 | 58 | 354 | 0.0 | 0.0 | 0.00 | 0.01 | 0.01 | 25 | 1021.3 |
| 20260507165807 | 58 | 330 | 0.0 | 0.0 | 0.00 | 0.01 | 0.01 | 26 | 1021.6 |
| 20260507165306 | 59 | 42 | 0.0 | 0.0 | 0.00 | 0.01 | 0.01 | 28 | 1021.6 |
| 20260507164759 | 58 | 318 | 0.0 | 0.0 | 0.00 | 0.01 | 0.01 | 28 | 1021.6 |
| 20260507164257 | 57 | 12 | 0.0 | 0.0 | 0.00 | 0.01 | 0.01 | 28 | 1021.3 |
| 20260507163754 | 56 | 36 | 0.0 | 0.0 | 0.00 | 0.01 | 0.01 | 28 | 1021.3 |
| 20260507163251 | 56 | 14 | 0.0 | 0.0 | 0.00 | 0.01 | 0.01 | 26 | 1021.3 |
| 20260507162747 | 57 | 278 | 0.0 | 0.0 | 0.00 | 0.01 | 0.01 | 26 | 1021.6 |
| 20260507162243 | 57 | 234 | 0.0 | 0.0 | 0.00 | 0.01 | 0.01 | 28 | 1021.6 |
| 20260507161740 | 56 | 198 | 0.0 | 0.0 | 0.00 | 0.01 | 0.01 | 29 | 1021.6 |
| 20260507161237 | 57 | 276 | 0.0 | 0.0 | 0.00 | 0.01 | 0.01 | 28 | 1021.6 |
| 20260507160732 | 56 | 6 | 0.0 | 0.0 | 0.00 | 0.01 | 0.01 | 28 | 1021.6 |
| 20260507160229 | 56 | 336 | 0.0 | 0.0 | 0.00 | 0.01 | 0.01 | 29 | 1021.6 |
| 20260507155725 | 55 | 306 | 0.0 | 0.0 | 0.00 | 0.01 | 0.01 | 29 | 1022.1 |
| 20260507155221 | 55 | 324 | 0.0 | 0.0 | 0.00 | 0.01 | 0.01 | 31 | 1022.1 |
| 20260507154719 | 54 | 234 | 0.0 | 0.0 | 0.00 | 0.01 | 0.01 | 32 | 1022.1 |
| 20260507154216 | 54 | 348 | 0.0 | 0.0 | 0.00 | 0.01 | 0.01 | 31 | 1022.1 |
| 20260507153712 | 54 | 244 | 0.0 | 0.0 | 0.00 | 0.01 | 0.01 | 32 | 1022.1 |
| 20260507153209 | 54 | 355 | 0.0 | 0.0 | 0.00 | 0.01 | 0.01 | 33 | 1022.1 |
| 20260507152705 | 53 | 9 | 0.0 | 0.0 | 0.00 | 0.01 | 0.01 | 33 | 1022.1 |
| 20260507152201 | 52 | 313 | 0.0 | 0.0 | 0.00 | 0.01 | 0.01 | 36 | 1022.1 |
| 20260507151657 | 52 | 54 | 0.0 | 0.0 | 0.00 | 0.01 | 0.01 | 37 | 1022.1 |
| 20260507151154 | 52 | 162 | 0.0 | 0.0 | 0.00 | 0.01 | 0.01 | 37 | 1022.5 |
| 20260507150651 | 51 | 162 | 0.0 | 0.0 | 0.00 | 0.01 | 0.01 | 38 | 1022.5 |
| 20260507150148 | 50 | 212 | 0.0 | 0.0 | 0.00 | 0.01 | 0.01 | 39 | 1022.5 |
| 20260507145643 | 50 | 300 | 0.0 | 0.0 | 0.01 | 0.01 | 0.01 | 40 | 1022.5 |
| 20260507145141 | 50 | 312 | 0.0 | 0.0 | 0.01 | 0.01 | 0.01 | 41 | 1022.5 |
| 20260507144637 | 49 | 343 | 0.0 | 0.0 | 0.01 | 0.01 | 0.01 | 40 | 1022.5 |
| 20260507144136 | 49 | 356 | 0.0 | 0.0 | 0.00 | 0.00 | 0.00 | 41 | 1022.1 |
| 20260507143632 | 49 | 330 | 0.0 | 0.0 | 0.00 | 0.00 | 0.00 | 43 | 1022.1 |
| 20260507143129 | 49 | 30 | 0.0 | 0.0 | 0.00 | 0.00 | 0.00 | 43 | 1022.1 |
| 20260507142624 | 48 | 348 | 0.0 | 0.0 | 0.00 | 0.00 | 0.00 | 44 | 1022.5 |
| 20260507142122 | 46 | 341 | 0.0 | 0.0 | 0.00 | 0.00 | 0.00 | 45 | 1022.5 |
| 20260507141618 | 45 | 344 | 0.0 | 0.0 | 0.00 | 0.00 | 0.00 | 47 | 1022.5 |
| 20260507141115 | 44 | 348 | 0.0 | 0.0 | 0.00 | 0.00 | 0.00 | 50 | 1022.5 |
| 20260507140611 | 43 | 312 | 0.0 | 0.0 | 0.00 | 0.00 | 0.00 | 50 | 1022.5 |
| 20260507140109 | 42 | 19 | 0.0 | 0.0 | 0.00 | 0.00 | 0.00 | 55 | 1022.5 |
| 20260507135606 | 42 | 24 | 0.0 | 0.0 | 0.00 | 0.00 | 0.00 | 59 | 1022.1 |
| 20260507135103 | 41 | 10 | 0.0 | 0.0 | 0.00 | 0.00 | 0.00 | 58 | 1022.1 |
| 20260507134559 | 40 | 34 | 0.0 | 0.0 | 0.00 | 0.00 | 0.00 | 57 | 1022.1 |
| 20260507134055 | 40 | 335 | 0.0 | 0.0 | 0.00 | 0.00 | 0.00 | 58 | 1022.1 |
| 20260507133551 | 39 | 0 | 0.0 | 0.0 | 0.00 | 0.00 | 0.00 | 58 | 1022.1 |
| 20260507133049 | 38 | 36 | 0.0 | 0.0 | 0.00 | 0.00 | 0.00 | 60 | 1022.1 |
| 20260507132546 | 37 | 6 | 0.0 | 0.0 | 0.00 | 0.00 | 0.00 | 62 | 1021.6 |
| 20260507132042 | 37 | 9 | 0.0 | 0.0 | 0.00 | 0.00 | 0.00 | 61 | 1021.6 |
| 20260507131539 | 36 | 0 | 0.0 | 0.0 | 0.00 | 0.00 | 0.00 | 62 | 1021.6 |
| 20260507131037 | 36 | 19 | 0.0 | 0.0 | 0.00 | 0.00 | 0.00 | 62 | 1022.1 |
| 20260507130533 | 35 | 336 | 0.0 | 0.0 | 0.00 | 0.00 | 0.00 | 63 | 1022.1 |
| 20260507130032 | 35 | 12 | 0.0 | 0.0 | 0.00 | 0.00 | 0.00 | 63 | 1022.1 |
| 20260507125530 | 35 | 9 | 0.0 | 0.0 | 0.00 | 0.00 | 0.00 | 63 | 1022.1 |
| 20260507125027 | 34 | 12 | 0.0 | 0.0 | 0.00 | 0.00 | 0.00 | 64 | 1022.1 |
| 20260507124523 | 33 | 19 | 0.0 | 0.0 | 0.00 | 0.00 | 0.00 | 64 | 1022.1 |
| 20260507124021 | 33 | 1 | 0.0 | 0.0 | 0.00 | 0.00 | 0.00 | 64 | 1021.6 |
| 20260507123519 | 33 | 11 | 0.0 | 0.0 | 0.00 | 0.00 | 0.00 | 64 | 1021.6 |
| 20260507123015 | 33 | 354 | 0.0 | 0.0 | 0.00 | 0.00 | 0.00 | 63 | 1021.6 |
| 20260507122510 | 33 | 44 | 0.0 | 0.0 | 0.00 | 0.00 | 0.00 | 63 | 1021.6 |
| 20260507122007 | 32 | 9 | 0.0 | 0.0 | 0.00 | 0.00 | 0.00 | 64 | 1021.6 |
| 20260507121502 | 32 | 31 | 0.0 | 0.0 | 0.00 | 0.00 | 0.00 | 65 | 1021.6 |
| 20260507120958 | 31 | 14 | 0.0 | 0.0 | 0.00 | 0.00 | 0.00 | 66 | 1021.6 |
| 20260507120455 | 32 | 0 | 0.0 | 0.0 | 0.00 | 0.00 | 0.00 | 65 | 1021.6 |
| 20260507115952 | 31 | 357 | 0.0 | 0.0 | 0.00 | 0.00 | 0.00 | 66 | 1021.6 |
| 20260507115448 | 31 | 13 | 0.0 | 0.0 | 0.00 | 0.00 | 0.00 | 66 | 1021.6 |
| 20260507114944 | 31 | 125 | 0.0 | 0.0 | 0.00 | 0.00 | 0.00 | 66 | 1021.6 |
| 20260507114440 | 31 | 324 | 0.0 | 0.0 | 0.00 | 0.00 | 0.00 | 65 | 1021.6 |
| 20260507113938 | 31 | 36 | 0.0 | 0.0 | 0.00 | 0.00 | 0.00 | 66 | 1021.6 |
| 20260507113434 | 31 | 357 | 0.0 | 0.0 | 0.00 | 0.00 | 0.00 | 65 | 1021.6 |
| 20260507112932 | 31 | 335 | 0.0 | 0.0 | 0.00 | 0.00 | 0.00 | 66 | 1022.1 |
| 20260507112429 | 31 | 24 | 0.0 | 0.0 | 0.00 | 0.00 | 0.00 | 66 | 1022.1 |
| 20260507111926 | 30 | 340 | 0.0 | 0.0 | 0.00 | 0.00 | 0.00 | 67 | 1022.1 |
| 20260507111423 | 30 | 79 | 0.0 | 0.0 | 0.00 | 0.00 | 0.00 | 68 | 1021.6 |
| 20260507110920 | 31 | 20 | 0.0 | 0.0 | 0.00 | 0.00 | 0.00 | 65 | 1021.6 |
| 20260507110416 | 31 | 58 | 0.0 | 0.0 | 0.00 | 0.00 | 0.00 | 66 | 1021.6 |
| 20260507105913 | 31 | 93 | 0.0 | 0.0 | 0.00 | 0.00 | 0.00 | 67 | 1021.3 |
| 20260507105409 | 30 | 96 | 0.0 | 0.0 | 0.00 | 0.00 | 0.00 | 68 | 1021.3 |
| 20260507104906 | 30 | 39 | 0.0 | 0.0 | 0.00 | 0.00 | 0.00 | 68 | 1021.3 |
| 20260507104402 | 29 | 48 | 0.0 | 0.0 | 0.00 | 0.00 | 0.00 | 69 | 1021.6 |
| 20260507103858 | 29 | 34 | 0.0 | 0.0 | 0.00 | 0.00 | 0.00 | 71 | 1021.6 |
| 20260507103355 | 29 | 42 | 0.0 | 0.0 | 0.00 | 0.00 | 0.00 | 71 | 1021.6 |
| 20260507102851 | 29 | 47 | 0.0 | 0.0 | 0.00 | 0.00 | 0.00 | 71 | 1021.6 |
| 20260507102348 | 28 | 353 | 0.0 | 0.0 | 0.00 | 0.00 | 0.00 | 76 | 1021.6 |
| 20260507101844 | 28 | 6 | 0.0 | 0.0 | 0.00 | 0.00 | 0.00 | 76 | 1021.6 |
| 20260507101344 | 28 | 12 | 0.0 | 0.0 | 0.00 | 0.00 | 0.00 | 77 | 1021.6 |
| 20260507100842 | 28 | 3 | 0.0 | 0.0 | 0.00 | 0.00 | 0.00 | 78 | 1021.6 |
| 20260507100340 | 28 | 343 | 0.0 | 0.0 | 0.00 | 0.00 | 0.00 | 78 | 1021.6 |
| 20260507095838 | 28 | 35 | 0.0 | 0.0 | 0.00 | 0.00 | 0.00 | 78 | 1021.6 |
| 20260507095334 | 28 | 12 | 0.0 | 0.0 | 0.00 | 0.00 | 0.00 | 77 | 1021.6 |
| 20260507094831 | 28 | 356 | 0.0 | 0.0 | 0.00 | 0.00 | 0.00 | 76 | 1021.6 |
| 20260507094328 | 28 | 35 | 0.0 | 0.0 | 0.00 | 0.00 | 0.00 | 77 | 1021.6 |
| 20260507093825 | 28 | 72 | 0.0 | 0.0 | 0.00 | 0.00 | 0.00 | 79 | 1021.6 |
| 20260507093324 | 28 | 24 | 0.0 | 0.0 | 0.00 | 0.00 | 0.00 | 78 | 1021.6 |
| 20260507092821 | 27 | 332 | 0.0 | 0.0 | 0.00 | 0.00 | 0.00 | 80 | 1021.6 |
| 20260507092318 | 28 | 324 | 0.0 | 0.0 | 0.00 | 0.00 | 0.00 | 81 | 1021.6 |
| 20260507091814 | 28 | 25 | 0.0 | 0.0 | 0.00 | 0.00 | 0.00 | 81 | 1021.6 |
| 20260507091311 | 28 | 3 | 0.0 | 0.0 | 0.00 | 0.00 | 0.00 | 78 | 1022.1 |
| 20260507090811 | 28 | 12 | 0.0 | 0.0 | 0.00 | 0.00 | 0.00 | 78 | 1022.1 |
| 20260507090308 | 28 | 1 | 0.0 | 0.0 | 0.00 | 0.00 | 0.00 | 79 | 1022.1 |
| 20260507085805 | 28 | 300 | 0.0 | 0.0 | 0.00 | 0.00 | 0.00 | 81 | 1022.1 |
| 20260507085306 | 28 | 35 | 0.0 | 0.0 | 0.00 | 0.00 | 0.00 | 81 | 1022.1 |
| 20260507084800 | 29 | 348 | 0.0 | 0.0 | 0.00 | 0.00 | 0.00 | 79 | 1022.1 |
| 20260507084255 | 28 | 327 | 0.0 | 0.0 | 0.00 | 0.00 | 0.00 | 81 | 1022.1 |
| 20260507083753 | 28 | 6 | 0.0 | 0.0 | 0.00 | 0.00 | 0.00 | 81 | 1022.1 |
| 20260507083249 | 28 | 72 | 0.0 | 0.0 | 0.00 | 0.00 | 0.00 | 83 | 1022.1 |
| 20260507082746 | 27 | 348 | 0.0 | 0.0 | 0.00 | 0.00 | 0.00 | 87 | 1022.1 |
| 20260507082241 | 27 | 275 | 0.0 | 0.0 | 0.00 | 0.00 | 0.00 | 89 | 1022.1 |
| 20260507081738 | 27 | 324 | 0.0 | 0.0 | 0.00 | 0.00 | 0.00 | 90 | 1022.1 |
| 20260507081234 | 27 | 18 | 0.0 | 0.0 | 0.00 | 0.00 | 0.00 | 91 | 1022.5 |
| 20260507080731 | 27 | 327 | 0.0 | 0.0 | 0.00 | 0.00 | 0.00 | 91 | 1022.5 |
| 20260507080227 | 27 | 11 | 0.0 | 0.0 | 0.00 | 0.00 | 0.00 | 91 | 1022.5 |
| 20260507075723 | 27 | 1 | 0.0 | 0.0 | 0.00 | 0.00 | 0.00 | 92 | 1022.5 |
| 20260507075219 | 27 | 16 | 0.0 | 0.0 | 0.00 | 0.00 | 0.00 | 92 | 1022.5 |
| 20260507074715 | 27 | 344 | 0.0 | 0.0 | 0.00 | 0.00 | 0.00 | 92 | 1022.5 |
| 20260507074214 | 27 | 13 | 0.0 | 0.0 | 0.00 | 0.00 | 0.00 | 93 | 1022.9 |
| 20260507073710 | 27 | 341 | 0.0 | 0.0 | 0.00 | 0.00 | 0.00 | 93 | 1022.9 |
| 20260507073207 | 27 | 41 | 0.0 | 0.0 | 0.00 | 0.00 | 0.00 | 93 | 1022.9 |
| 20260507072705 | 27 | 12 | 0.0 | 0.0 | 0.00 | 0.00 | 0.00 | 94 | 1022.5 |
| 20260507072202 | 27 | 22 | 0.0 | 0.0 | 0.00 | 0.00 | 0.00 | 95 | 1022.5 |
| 20260507071700 | 27 | 53 | 0.0 | 0.0 | 0.00 | 0.00 | 0.00 | 96 | 1022.5 |
| 20260507071155 | 27 | 348 | 0.0 | 0.0 | 0.00 | 0.00 | 0.00 | 96 | 1022.5 |
| 20260507070653 | 27 | 35 | 0.0 | 0.0 | 0.00 | 0.00 | 0.00 | 96 | 1022.5 |
| 20260507070149 | 27 | 11 | 0.0 | 0.0 | 0.00 | 0.00 | 0.00 | 97 | 1022.5 |
| 20260507065646 | 27 | 41 | 0.0 | 0.0 | 0.00 | 0.00 | 0.00 | 97 | 1022.5 |
| 20260507065143 | 27 | 19 | 0.0 | 0.0 | 0.00 | 0.00 | 0.00 | 97 | 1022.5 |
| 20260507064640 | 27 | 12 | 0.0 | 0.0 | 0.00 | 0.00 | 0.00 | 97 | 1022.5 |
| 20260507064139 | 27 | 316 | 0.0 | 0.0 | 0.00 | 0.00 | 0.00 | 97 | 1022.9 |
| 20260507063636 | 28 | 14 | 0.0 | 0.0 | 0.00 | 0.00 | 0.00 | 97 | 1022.9 |
| 20260507063133 | 28 | 29 | 0.0 | 0.0 | 0.00 | 0.00 | 0.00 | 97 | 1022.9 |
| 20260507062629 | 28 | 18 | 0.0 | 0.0 | 0.00 | 0.00 | 0.00 | 96 | 1022.9 |
| 20260507062127 | 28 | 40 | 0.0 | 0.0 | 0.00 | 0.00 | 0.00 | 96 | 1022.9 |
| 20260507061625 | 28 | 16 | 0.0 | 0.0 | 0.00 | 0.00 | 0.00 | 96 | 1022.9 |
| 20260507061123 | 28 | 336 | 0.0 | 0.0 | 0.00 | 0.00 | 0.00 | 96 | 1022.9 |
| 20260507060620 | 28 | 64 | 0.0 | 0.0 | 0.00 | 0.00 | 0.00 | 96 | 1022.9 |
| 20260507060117 | 28 | 336 | 0.0 | 0.0 | 0.00 | 0.00 | 0.00 | 95 | 1022.9 |
| 20260507055612 | 28 | 57 | 0.0 | 0.0 | 0.00 | 0.24 | 0.24 | 95 | 1022.5 |
| 20260507055108 | 28 | 6 | 0.0 | 0.0 | 0.00 | 0.24 | 0.24 | 95 | 1022.5 |
| 20260507054604 | 29 | 9 | 0.0 | 0.0 | 0.00 | 0.24 | 0.24 | 95 | 1022.5 |
| 20260507054102 | 29 | 6 | 0.0 | 0.0 | 0.00 | 0.24 | 0.24 | 95 | 1022.5 |
| 20260507053559 | 29 | 22 | 0.0 | 0.0 | 0.00 | 0.24 | 0.24 | 94 | 1022.5 |
| 20260507053058 | 29 | 13 | 0.0 | 0.0 | 0.00 | 0.24 | 0.24 | 94 | 1022.5 |
| 20260507052556 | 29 | 352 | 0.0 | 0.0 | 0.00 | 0.24 | 0.24 | 94 | 1022.5 |
| 20260507052052 | 29 | 140 | 0.0 | 0.0 | 0.00 | 0.24 | 0.24 | 94 | 1022.5 |
| 20260507051549 | 30 | 25 | 0.0 | 0.0 | 0.00 | 0.24 | 0.24 | 94 | 1022.5 |
| 20260507051046 | 30 | 174 | 0.0 | 0.0 | 0.00 | 0.24 | 0.24 | 94 | 1022.5 |
| 20260507050543 | 30 | 168 | 0.0 | 0.0 | 0.00 | 0.24 | 0.24 | 94 | 1022.5 |
| 20260507050039 | 30 | 66 | 0.0 | 0.0 | 0.00 | 0.24 | 0.24 | 94 | 1022.5 |
| 20260507045536 | 30 | 174 | 0.0 | 0.0 | 0.00 | 0.24 | 0.24 | 93 | 1022.5 |
| 20260507045033 | 30 | 145 | 0.0 | 0.0 | 0.00 | 0.24 | 0.24 | 93 | 1022.5 |
| 20260507044530 | 30 | 57 | 0.0 | 0.0 | 0.00 | 0.24 | 0.24 | 93 | 1022.5 |
| 20260507044027 | 30 | 152 | 0.0 | 0.0 | 0.00 | 0.24 | 0.24 | 93 | 1022.5 |
| 20260507043522 | 31 | 174 | 0.0 | 0.0 | 0.00 | 0.24 | 0.24 | 93 | 1022.5 |
| 20260507043020 | 31 | 150 | 0.0 | 0.0 | 0.00 | 0.24 | 0.24 | 93 | 1022.5 |
| 20260507042516 | 31 | 152 | 0.0 | 0.0 | 0.00 | 0.24 | 0.24 | 92 | 1022.5 |
| 20260507042011 | 31 | 148 | 0.0 | 0.0 | 0.00 | 0.24 | 0.24 | 92 | 1022.5 |
| 20260507041509 | 31 | 165 | 0.0 | 0.0 | 0.00 | 0.24 | 0.24 | 91 | 1022.5 |
| 20260507041006 | 31 | 174 | 0.0 | 0.0 | 0.00 | 0.24 | 0.24 | 91 | 1022.5 |
| 20260507040502 | 31 | 136 | 0.0 | 0.0 | 0.00 | 0.24 | 0.24 | 90 | 1022.5 |
| 20260507035957 | 31 | 159 | 0.0 | 0.0 | 0.00 | 0.24 | 0.24 | 89 | 1022.5 |
| 20260507035454 | 31 | 112 | 0.0 | 0.0 | 0.00 | 0.24 | 0.24 | 89 | 1022.5 |
| 20260507034951 | 31 | 179 | 0.0 | 0.0 | 0.00 | 0.24 | 0.24 | 89 | 1022.5 |
| 20260507034448 | 31 | 186 | 0.0 | 0.0 | 0.00 | 0.24 | 0.24 | 89 | 1022.5 |
| 20260507033946 | 31 | 234 | 0.0 | 0.0 | 0.00 | 0.24 | 0.24 | 88 | 1022.5 |
| 20260507033443 | 31 | 216 | 0.0 | 0.0 | 0.00 | 0.24 | 0.24 | 88 | 1022.5 |
| 20260507032940 | 31 | 190 | 0.0 | 0.0 | 0.00 | 0.24 | 0.24 | 88 | 1022.1 |
| 20260507032437 | 31 | 184 | 0.0 | 0.0 | 0.00 | 0.24 | 0.24 | 87 | 1022.1 |
| 20260507031933 | 31 | 268 | 0.0 | 0.0 | 0.00 | 0.24 | 0.24 | 86 | 1022.1 |
| 20260507031430 | 32 | 150 | 0.0 | 0.0 | 0.00 | 0.24 | 0.24 | 86 | 1021.6 |
| 20260507030926 | 32 | 204 | 0.0 | 0.0 | 0.00 | 0.24 | 0.24 | 85 | 1021.6 |
| 20260507030424 | 32 | 216 | 0.0 | 0.0 | 0.00 | 0.24 | 0.24 | 84 | 1021.6 |
| 20260507025921 | 32 | 190 | 0.0 | 0.0 | 0.00 | 0.24 | 0.24 | 84 | 1021.6 |
| 20260507025418 | 32 | 150 | 0.0 | 0.0 | 0.00 | 0.24 | 0.24 | 84 | 1021.6 |
| 20260507024916 | 32 | 147 | 0.0 | 0.0 | 0.00 | 0.24 | 0.24 | 83 | 1021.6 |
| 20260507024413 | 32 | 141 | 0.0 | 0.0 | 0.00 | 0.24 | 0.24 | 83 | 1021.6 |
| 20260507023909 | 32 | 168 | 0.0 | 0.0 | 0.00 | 0.24 | 0.24 | 82 | 1021.6 |
| 20260507023406 | 32 | 142 | 0.0 | 0.0 | 0.00 | 0.24 | 0.24 | 83 | 1021.6 |
| 20260507022903 | 33 | 168 | 0.0 | 0.0 | 0.00 | 0.24 | 0.24 | 82 | 1022.1 |
| 20260507022359 | 33 | 186 | 0.0 | 0.0 | 0.00 | 0.24 | 0.24 | 82 | 1022.1 |
| 20260507021855 | 33 | 204 | 0.0 | 0.0 | 0.00 | 0.24 | 0.24 | 81 | 1022.1 |
| 20260507021350 | 33 | 150 | 0.0 | 0.0 | 0.00 | 0.24 | 0.24 | 81 | 1022.1 |
| 20260507020848 | 33 | 126 | 0.0 | 0.0 | 0.00 | 0.24 | 0.24 | 80 | 1022.1 |
| 20260507020345 | 33 | 120 | 0.0 | 0.0 | 0.00 | 0.24 | 0.24 | 79 | 1022.1 |
| 20260507015842 | 34 | 168 | 0.0 | 0.0 | 0.00 | 0.24 | 0.24 | 79 | 1021.6 |
| 20260507015340 | 34 | 310 | 0.0 | 0.0 | 0.00 | 0.24 | 0.24 | 78 | 1021.6 |
| 20260507014837 | 34 | 108 | 0.0 | 0.0 | 0.00 | 0.24 | 0.24 | 77 | 1021.6 |
| 20260507014333 | 35 | 224 | 0.0 | 0.0 | 0.00 | 0.24 | 0.24 | 75 | 1021.6 |
| 20260507013830 | 35 | 204 | 0.0 | 0.0 | 0.00 | 0.24 | 0.24 | 74 | 1021.6 |
| 20260507013327 | 36 | 162 | 0.0 | 0.0 | 0.00 | 0.24 | 0.24 | 72 | 1021.6 |
| 20260507012825 | 36 | 174 | 0.0 | 0.0 | 0.00 | 0.24 | 0.24 | 72 | 1021.6 |
| 20260507012320 | 37 | 117 | 0.0 | 0.0 | 0.00 | 0.24 | 0.24 | 71 | 1021.6 |
| 20260507011812 | 37 | 192 | 0.0 | 0.0 | 0.00 | 0.24 | 0.24 | 72 | 1021.6 |
| 20260507011308 | 37 | 162 | 0.0 | 0.0 | 0.00 | 0.24 | 0.24 | 71 | 1021.6 |
| 20260507010808 | 37 | 202 | 0.0 | 0.0 | 0.00 | 0.24 | 0.24 | 71 | 1021.6 |
| 20260507010304 | 36 | 174 | 0.0 | 0.0 | 0.00 | 0.24 | 0.24 | 72 | 1021.6 |
| 20260507005802 | 36 | 198 | 0.0 | 0.0 | 0.01 | 0.24 | 0.24 | 72 | 1021.6 |
| 20260507005258 | 37 | 183 | 0.0 | 0.0 | 0.01 | 0.24 | 0.24 | 70 | 1021.6 |
| 20260507004754 | 38 | 162 | 0.0 | 0.0 | 0.01 | 0.24 | 0.24 | 68 | 1021.6 |
| 20260507004252 | 38 | 139 | 0.0 | 0.0 | 0.01 | 0.24 | 0.24 | 67 | 1021.3 |
| 20260507003748 | 39 | 117 | 0.0 | 0.0 | 0.01 | 0.24 | 0.24 | 66 | 1021.3 |
| 20260507003243 | 39 | 242 | 0.0 | 0.0 | 0.01 | 0.24 | 0.24 | 64 | 1021.3 |
| 20260507002740 | 39 | 203 | 0.0 | 0.0 | 0.01 | 0.24 | 0.24 | 64 | 1021.3 |
| 20260507002236 | 38 | 234 | 0.0 | 0.0 | 0.01 | 0.24 | 0.24 | 65 | 1021.3 |
| 20260507001733 | 38 | 230 | 0.0 | 0.0 | 0.01 | 0.24 | 0.24 | 66 | 1021.3 |
| 20260507001230 | 39 | 245 | 0.0 | 0.0 | 0.01 | 0.24 | 0.24 | 63 | 1021.6 |
| 20260507000727 | 39 | 252 | 0.0 | 0.0 | 0.00 | 0.23 | 0.23 | 62 | 1021.6 |
| 20260507000222 | 40 | 145 | 0.0 | 0.0 | 0.00 | 0.23 | 0.23 | 62 | 1021.6 |
| 20260506235719 | 40 | 246 | 0.0 | 0.0 | 0.02 | 0.23 | 0.23 | 62 | 1021.3 |
| 20260506235214 | 39 | 228 | 0.0 | 0.0 | 0.02 | 0.23 | 0.23 | 62 | 1021.3 |
| 20260506234712 | 38 | 204 | 0.0 | 0.0 | 0.02 | 0.23 | 0.23 | 64 | 1021.3 |
| 20260506234209 | 37 | 222 | 0.0 | 0.0 | 0.02 | 0.23 | 0.23 | 67 | 1021.3 |
| 20260506233707 | 36 | 156 | 0.0 | 0.0 | 0.02 | 0.23 | 0.23 | 69 | 1021.3 |
| 20260506233203 | 37 | 168 | 0.0 | 0.0 | 0.02 | 0.23 | 0.23 | 65 | 1021.3 |
| 20260506232659 | 37 | 192 | 0.0 | 0.0 | 0.01 | 0.22 | 0.22 | 69 | 1021.6 |
| 20260506232154 | 37 | 204 | 0.0 | 0.0 | 0.01 | 0.22 | 0.22 | 68 | 1021.6 |
| 20260506231652 | 37 | 198 | 0.0 | 0.0 | 0.01 | 0.22 | 0.22 | 68 | 1021.6 |
| 20260506231151 | 38 | 217 | 0.0 | 0.0 | 0.01 | 0.22 | 0.22 | 67 | 1021.3 |
| 20260506230647 | 37 | 295 | 0.0 | 0.0 | 0.01 | 0.22 | 0.22 | 68 | 1021.3 |
| 20260506230144 | 37 | 30 | 0.0 | 0.0 | 0.00 | 0.21 | 0.21 | 71 | 1021.3 |
| 20260506225640 | 37 | 36 | 0.0 | 0.0 | 0.02 | 0.21 | 0.21 | 69 | 1021.3 |
| 20260506225137 | 37 | 18 | 0.0 | 0.0 | 0.02 | 0.21 | 0.21 | 70 | 1021.3 |
| 20260506224633 | 36 | 352 | 0.0 | 0.0 | 0.02 | 0.21 | 0.21 | 70 | 1021.3 |
| 20260506224130 | 36 | 356 | 0.0 | 0.0 | 0.02 | 0.21 | 0.21 | 72 | 1021.6 |
| 20260506223626 | 36 | 18 | 0.0 | 0.0 | 0.01 | 0.20 | 0.20 | 73 | 1021.6 |
| 20260506223122 | 36 | 293 | 0.0 | 0.0 | 0.01 | 0.20 | 0.20 | 74 | 1021.6 |
| 20260506222620 | 35 | 0 | 0.0 | 0.0 | 0.01 | 0.20 | 0.20 | 75 | 1021.6 |
| 20260506222116 | 35 | 348 | 0.0 | 0.0 | 0.01 | 0.20 | 0.20 | 76 | 1021.6 |
| 20260506221614 | 36 | 20 | 0.0 | 0.0 | 0.00 | 0.19 | 0.19 | 75 | 1021.6 |
| 20260506221112 | 35 | 41 | 0.0 | 0.0 | 0.00 | 0.19 | 0.19 | 74 | 1021.3 |
| 20260506220607 | 36 | 355 | 0.0 | 0.0 | 0.00 | 0.19 | 0.19 | 75 | 1021.3 |
| 20260506220057 | 35 | 343 | 0.0 | 0.0 | 0.00 | 0.19 | 0.19 | 74 | 1021.3 |
| 20260506215554 | 36 | 319 | 0.0 | 0.0 | 0.05 | 0.18 | 0.18 | 73 | 1021.3 |
| 20260506215049 | 38 | 316 | 0.0 | 0.0 | 0.05 | 0.18 | 0.18 | 73 | 1021.3 |
| 20260506214547 | 37 | 162 | 0.0 | 0.0 | 0.04 | 0.17 | 0.17 | 70 | 1021.6 |
| 20260506214044 | 36 | 354 | 0.0 | 0.0 | 0.03 | 0.16 | 0.16 | 73 | 1021.6 |
| 20260506213543 | 35 | 344 | 0.0 | 0.0 | 0.03 | 0.16 | 0.16 | 77 | 1021.6 |
| 20260506213040 | 35 | 22 | 0.0 | 0.0 | 0.02 | 0.15 | 0.15 | 78 | 1021.6 |
| 20260506212536 | 34 | 356 | 0.0 | 0.0 | 0.02 | 0.15 | 0.15 | 80 | 1021.6 |
| 20260506212031 | 34 | 282 | 0.0 | 0.0 | 0.02 | 0.15 | 0.15 | 77 | 1021.6 |
| 20260506211527 | 35 | 18 | 0.0 | 0.0 | 0.01 | 0.14 | 0.14 | 78 | 1022.1 |
| 20260506211024 | 35 | 12 | 0.0 | 0.0 | 0.01 | 0.14 | 0.14 | 78 | 1022.1 |
| 20260506210521 | 34 | 12 | 0.0 | 0.0 | 0.00 | 0.13 | 0.13 | 78 | 1022.1 |
| 20260506210017 | 33 | 356 | 0.0 | 0.0 | 0.00 | 0.13 | 0.13 | 80 | 1021.6 |
| 20260506205514 | 33 | 6 | 0.0 | 0.0 | 0.04 | 0.13 | 0.13 | 81 | 1021.6 |
| 20260506205009 | 33 | 330 | 0.0 | 0.0 | 0.03 | 0.12 | 0.12 | 81 | 1021.6 |
| 20260506204508 | 34 | 32 | 0.0 | 0.0 | 0.03 | 0.12 | 0.12 | 79 | 1022.1 |
| 20260506204004 | 34 | 26 | 0.0 | 0.0 | 0.03 | 0.12 | 0.12 | 78 | 1022.1 |
| 20260506203503 | 33 | 12 | 0.0 | 0.0 | 0.02 | 0.11 | 0.11 | 79 | 1022.1 |
| 20260506202959 | 33 | 7 | 0.0 | 0.0 | 0.02 | 0.11 | 0.11 | 80 | 1021.6 |
| 20260506202456 | 32 | 329 | 0.0 | 0.0 | 0.02 | 0.11 | 0.11 | 81 | 1021.6 |
| 20260506201952 | 32 | 108 | 0.0 | 0.0 | 0.02 | 0.11 | 0.11 | 83 | 1021.6 |
| 20260506201450 | 32 | 22 | 0.0 | 0.0 | 0.01 | 0.10 | 0.10 | 83 | 1021.6 |
| 20260506200947 | 33 | 48 | 0.0 | 0.0 | 0.01 | 0.10 | 0.10 | 83 | 1021.6 |